KD8UGJ Weather Reports


time (UTC)temp
C
wind
direction
speed
KPH
gust
KPH
rain 1hr
cm
rain 24hr
cm
rain mn
cm
humidity
%
barometer
mb
20260502234505 7 360 8.0 16.1 0.00 0.05 0.00 61 1018.2
20260502233008 7 360 9.7 16.1 0.00 0.05 0.00 61 1018.1
20260502231503 7 360 4.8 14.5 0.00 0.05 0.00 59 1018.1
20260502230002 7 360 8.0 17.7 0.00 0.05 0.00 60 1018.3
20260502224503 7 290 11.3 20.9 0.00 0.05 0.00 63 1018.2
20260502223002 7 360 9.7 19.3 0.00 0.05 0.00 65 1018.3
20260502221501 7 360 12.9 20.9 0.00 0.05 0.00 61 1018.3
20260502220001 7 360 9.7 22.5 0.00 0.05 0.00 64 1018.2
20260502214503 7 277 14.5 24.1 0.00 0.05 0.00 64 1018.3
20260502213125 7 360 17.7 24.1 0.00 0.05 0.00 64 1018.1
20260502211637 7 360 16.1 20.9 0.00 0.05 0.00 65 1018.1
20260502210110 7 360 14.5 24.1 0.00 0.05 0.00 64 1018.1
20260502204559 7 338 19.3 27.4 0.00 0.05 0.00 62 1018.1
20260502203102 8 320 14.5 27.4 0.00 0.05 0.00 63 1018.3
20260502201605 7 314 11.3 24.1 0.00 0.05 0.00 67 1018.2
20260502200057 7 307 16.1 25.7 0.00 0.05 0.00 63 1018.4
20260502194607 7 360 8.0 29.0 0.00 0.05 0.00 63 1018.6
20260502193057 7 360 22.5 29.0 0.00 0.05 0.00 61 1018.7
20260502191558 8 360 11.3 22.5 0.00 0.05 0.00 66 1018.7
20260502190054 8 360 16.1 25.7 0.00 0.05 0.00 69 1018.9
20260502184557 8 360 20.9 35.4 0.00 0.05 0.00 70 1018.9
20260502183104 7 360 17.7 22.5 0.00 0.05 0.00 66 1019.1
20260502181552 7 360 12.9 20.9 0.00 0.05 0.00 63 1019.1
20260502163050 5 318 9.7 22.5 0.00 0.08 0.00 73 1019.7
20260502161543 5 360 9.7 17.7 0.00 0.08 0.00 75 1019.7
20260502151543 5 334 8.0 14.5 0.00 0.23 0.00 72 1019.5
20260502123022 1 296 4.8 8.0 0.00 0.56 0.00 89 1018.7
20260502121522 1 360 4.8 8.0 0.00 0.56 0.00 89 1018.8
20260502114520 1 360 3.2 8.0 0.00 0.58 0.00 89 1018.7
20260502113018 1 300 1.6 8.0 0.00 0.58 0.00 89 1018.5
20260502111517 1 313 4.8 12.9 0.00 0.58 0.00 88 1018.3
20260502110017 1 360 4.8 11.3 0.00 0.61 0.00 88 1018.4
20260502104521 1 360 8.0 12.9 0.00 0.61 0.00 87 1018.2
20260502103015 1 360 11.3 16.1 0.00 0.61 0.00 87 1018.0
20260502101530 0 360 6.4 12.9 0.00 0.61 0.00 87 1018.2
20260502091505 1 360 9.7 16.1 0.00 0.71 0.00 83 1017.6
20260502080107 1 360 11.3 17.7 0.00 0.76 0.00 83 1017.5
20260502070058 2 360 9.7 14.5 0.00 0.81 0.00 82 1017.3
20260502064549 2 264 8.0 16.1 0.00 0.81 0.00 82 1017.5
20260502063045 2 273 9.7 16.1 0.00 0.81 0.00 82 1017.4
20260502061543 3 360 8.0 16.1 0.00 0.81 0.00 84 1017.5
20260502060039 3 360 9.7 16.1 0.00 0.81 0.00 85 1017.5
20260502054540 3 360 6.4 12.9 0.00 0.81 0.00 85 1017.6
20260502053035 3 360 6.4 14.5 0.00 0.81 0.00 86 1017.5
20260502051531 4 275 8.0 16.1 0.00 0.81 0.00 86 1017.6
20260502050035 4 360 6.4 12.9 0.00 0.81 0.81 85 1017.6
20260502044528 5 360 1.6 8.0 0.00 0.81 0.81 84 1017.7
20260502043026 5 360 4.8 8.0 0.00 0.81 0.81 83 1017.9
20260502041526 5 263 1.6 8.0 0.00 0.81 0.81 84 1017.9
20260502040029 5 270 3.2 8.0 0.00 0.81 0.81 83 1017.9
20260502034529 5 360 8.0 12.9 0.00 0.81 0.81 84 1017.8
20260502033025 5 269 8.0 14.5 0.00 0.81 0.81 86 1017.9
20260502031523 5 360 1.6 6.4 0.00 0.81 0.81 85 1017.6
20260502030023 5 360 6.4 9.7 0.00 0.81 0.81 84 1017.6
20260502024522 5 272 6.4 14.5 0.00 0.81 0.81 86 1017.6
20260502023020 5 297 0.0 1.6 0.00 0.81 0.81 85 1017.3
20260502021519 5 296 1.6 4.8 0.00 0.81 0.81 84 1017.2
20260502020018 5 299 0.0 4.8 0.00 0.81 0.81 83 1016.9
20260502014520 5 305 4.8 8.0 0.00 0.81 0.81 84 1016.9
20260502013017 5 319 9.7 25.7 0.00 0.81 0.81 84 1016.9
20260502011522 5 360 20.9 32.2 0.00 0.81 0.81 85 1016.7
20260502010015 5 238 6.4 14.5 0.00 0.81 0.81 89 1016.6
20260502004512 5 360 3.2 6.4 0.00 0.81 0.81 88 1016.3
20260502003010 5 323 0.0 0.0 0.05 0.81 0.81 87 1016.2
20260502001512 5 323 0.0 1.6 0.05 0.81 0.81 87 1016.1
20260502000009 5 320 3.2 6.4 0.05 0.81 0.81 85 1016.0